Location: Oberwangen
(47.4286°N, 8.9679°E)
Time: 19:17:13
(UTC+00:00)

Cosmos 1953 Rocket - Pass Details

Date: 30 October 2021
Orbit: 603 x 635 km, 82.5° (Epoch: 03 December)

Event Time Altitude Azimuth Distance (km) Brightness Sun altitude
Rises 18:27:07 0° 346° (NNW) 2,940 7.3 -23.7°
Reaches altitude 10° 18:29:24 10° 342° (NNW) 2,023 6.5 -24.0°
Maximum altitude 18:33:45 52° 266° (W) 784 4.3 -24.8°
Drops below altitude 10° 18:38:03 10° 190° (S) 1,990 6.2 -25.5°
Sets 18:40:17 0° 186° (S) 2,886 7.0 -25.9°
